This is the latest recevied weather packets stored in our database for station/object W4SKW. If no packets are shown the sender has not sent any weather packets the latest 10 day(s).
| Time | Temp. | Humidity | Pressure | Rain* | Wind** | Luminosity | Snow |
|---|---|---|---|---|---|---|---|
| 1778124534 | 17.22° C | 98% | 1014 hPa | 0 mm | - | 0 W/m² | - |
| 1778124231 | 17.22° C | 98% | 1014.1 hPa | 0 mm | - | 0 W/m² | - |
| 1778123927 | 17.22° C | 98% | 1014.1 hPa | 0 mm | - | 0 W/m² | - |
| 1778123624 | 17.22° C | 98% | 1014.2 hPa | 0 mm | - | 0 W/m² | - |
| 1778123321 | 17.22° C | 98% | 1014.5 hPa | 0 mm | - | 0 W/m² | - |
| 1778123018 | 17.22° C | 98% | 1014.5 hPa | 0 mm | - | 0 W/m² | - |
| 1778122715 | 17.22° C | 98% | 1014.3 hPa | 0 mm | - | 0 W/m² | - |
| 1778122413 | 17.22° C | 98% | 1014 hPa | 0 mm | - | 0 W/m² | - |
| 1778122110 | 17.22° C | 98% | 1014.4 hPa | 0 mm | - | 0 W/m² | - |
| 1778121807 | 17.22° C | 98% | 1014.4 hPa | 0 mm | - | 0 W/m² | - |
| 1778121503 | 17.22° C | 98% | 1014.2 hPa | 0 mm | - | 0 W/m² | - |
| 1778121200 | 17.78° C | 98% | 1014.7 hPa | 1.78 mm | - | 0 W/m² | - |
| 1778120897 | 17.78° C | 98% | 1014.4 hPa | 6.6 mm | - | 0 W/m² | - |
| 1778120593 | 17.78° C | 98% | 1014.6 hPa | 0 mm | - | 0 W/m² | - |
| 1778120290 | 17.78° C | 98% | 1014.6 hPa | 0 mm | - | 0 W/m² | - |
| 1778119985 | 17.78° C | 98% | 1014.6 hPa | 0 mm | - | 0 W/m² | - |
| 1778119684 | 17.78° C | 98% | 1014.3 hPa | 0 mm | - | 0 W/m² | - |
| 1778119379 | 17.78° C | 98% | 1014.4 hPa | 1.27 mm | - | 0 W/m² | - |
| 1778119077 | 17.78° C | 98% | 1014.5 hPa | 1.27 mm | - | 0 W/m² | - |
| 1778118774 | 17.78° C | 98% | 1014.7 hPa | 0 mm | - | 0 W/m² | - |
| 1778118471 | 17.78° C | 98% | 1014.5 hPa | 0 mm | - | 0 W/m² | - |
| 1778118168 | 17.78° C | 98% | 1014.5 hPa | 0 mm | - | 0 W/m² | - |
| 1778117864 | 17.78° C | 98% | 1014.2 hPa | 0 mm | - | 0 W/m² | - |
| 1778117562 | 17.78° C | 97% | 1014.5 hPa | 0 mm | - | 0 W/m² | - |
| 1778117259 | 17.78° C | 97% | 1014.4 hPa | 0 mm | - | 0 W/m² | - |
* Rain latest hour (hover to see other rain measurements)
** Current wind speed in m/s (hover to see current wind gust speed)